When you browse on this site, cookies collect data to enhance your experience and personalize the content and advertising you see.
Visit our Privacy Policy to learn more. By continuing to use the site, you agree to this use of cookies and data.
  • In Lithuania
  • List of Countries
  • For 7 days
  • Water Temperature
  • Satellite Maps
  • Weather Map
  • Weather Widgets
  • user-avatar
    Login

    Hourly Weather Mayakovskogo

    Today, 11 December, Tuesday

    Time Temperature Precipitation Wind Pressure Humidity
    00:00 +2°C° 0.4 mm 5 mps 757 mmHg 92%
    01:00 +2°C° 0 mm 5 mps 757 mmHg 92%
    02:00 +2°C° 0 mm 5 mps 757 mmHg 92%
    03:00 +3°C° 0 mm 3 mps 757 mmHg 94%
    04:00 +3°C° 0 mm 3 mps 756 mmHg 94%
    05:00 +1°C° 0 mm 4 mps 756 mmHg 94%
    06:00 +1°C° 0 mm 5 mps 756 mmHg 93%
    07:00 +1°C° 0 mm 5 mps 756 mmHg 93%
    08:00 +1°C° 0 mm 5 mps 756 mmHg 94%
    09:00 +1°C° 0 mm 6 mps 756 mmHg 94%
    10:00 +2°C° 0 mm 6 mps 756 mmHg 92%
    11:00 +2°C° 0 mm 7 mps 755 mmHg 90%
    12:00 +3°C° 0 mm 7 mps 755 mmHg 88%
    13:00 +3°C° 0.1 mm 7 mps 755 mmHg 88%
    14:00 +3°C° 0.1 mm 7 mps 754 mmHg 87%
    15:00 +4°C° 0.1 mm 7 mps 754 mmHg 87%
    16:00 +3°C° 0.7 mm 7 mps 754 mmHg 88%
    17:00 +3°C° 0.7 mm 6 mps 754 mmHg 90%
    18:00 +3°C° 0.7 mm 6 mps 754 mmHg 91%
    19:00 +3°C° 0.8 mm 7 mps 754 mmHg 91%
    20:00 +3°C° 0.8 mm 7 mps 754 mmHg 92%
    21:00 +3°C° 0.8 mm 7 mps 754 mmHg 92%
    22:00 +4°C° 0 mm 7 mps 754 mmHg 92%
    23:00 +4°C° 0 mm 7 mps 754 mmHg 91%

    Tomorrow, 12 December, Wednesday

    Time Temperature Precipitation Wind Pressure Humidity
    00:00 +4°C° 0 mm 7 mps 754 mmHg 90%
    01:00 +5°C° 0.1 mm 7 mps 754 mmHg 89%
    02:00 +5°C° 0.1 mm 7 mps 753 mmHg 87%
    03:00 +5°C° 0.1 mm 7 mps 753 mmHg 86%
    04:00 +5°C° 0 mm 7 mps 753 mmHg 84%
    05:00 +5°C° 0 mm 7 mps 753 mmHg 82%
    06:00 +5°C° 0 mm 7 mps 753 mmHg 80%
    07:00 +5°C° 0 mm 7 mps 754 mmHg 80%
    08:00 +5°C° 0 mm 7 mps 754 mmHg 79%
    09:00 +4°C° 0 mm 7 mps 754 mmHg 79%
    10:00 +4°C° 0 mm 7 mps 755 mmHg 76%
    11:00 +5°C° 0 mm 7 mps 755 mmHg 74%
    12:00 +5°C° 0 mm 8 mps 755 mmHg 72%
    13:00 +4°C° 0 mm 7 mps 756 mmHg 72%
    14:00 +4°C° 0 mm 7 mps 756 mmHg 73%
    15:00 +4°C° 0 mm 7 mps 756 mmHg 73%
    16:00 +3°C° 0 mm 6 mps 757 mmHg 75%
    17:00 +3°C° 0 mm 5 mps 757 mmHg 77%
    18:00 +3°C° 0 mm 5 mps 758 mmHg 79%
    19:00 +3°C° 0 mm 4 mps 758 mmHg 80%
    20:00 +3°C° 0 mm 4 mps 759 mmHg 81%
    21:00 +3°C° 0 mm 4 mps 759 mmHg 82%
    22:00 +3°C° 0 mm 4 mps 759 mmHg 83%
    23:00 +3°C° 0 mm 4 mps 760 mmHg 84%

    Day after tomorrow, 13 December, Thursday

    Time Temperature Precipitation Wind Pressure Humidity
    00:00 +1°C° 0 mm 4 mps 760 mmHg 85%
    01:00 +2°C° 0 mm 3 mps 760 mmHg 87%
    02:00 +2°C° 0 mm 3 mps 761 mmHg 88%
    03:00 +1°C° 0 mm 3 mps 761 mmHg 89%
    04:00 +1°C° 0 mm 3 mps 761 mmHg 89%
    05:00 +1°C° 0 mm 3 mps 761 mmHg 88%
    06:00 +1°C° 0 mm 3 mps 761 mmHg 88%
    07:00 +1°C° 0 mm 3 mps 762 mmHg 88%
    08:00 +2°C° 0 mm 2 mps 762 mmHg 87%
    09:00 +2°C° 0 mm 2 mps 763 mmHg 87%
    10:00 +2°C° 0 mm 3 mps 763 mmHg 82%
    11:00 +2°C° 0 mm 3 mps 763 mmHg 77%
    12:00 +3°C° 0 mm 4 mps 764 mmHg 72%
    13:00 +3°C° 0 mm 4 mps 764 mmHg 71%
    14:00 +4°C° 0 mm 4 mps 764 mmHg 70%
    15:00 +4°C° 0 mm 3 mps 764 mmHg 69%
    16:00 +3°C° 0 mm 3 mps 765 mmHg 73%
    17:00 +4°C° 0 mm 2 mps 765 mmHg 76%
    18:00 +3°C° 0 mm 2 mps 766 mmHg 80%
    19:00 +3°C° 0 mm 2 mps 766 mmHg 81%
    20:00 +3°C° 0 mm 2 mps 766 mmHg 83%
    21:00 +2°C° 0 mm 2 mps 766 mmHg 84%
    22:00 +2°C° 0 mm 2 mps 767 mmHg 85%
    23:00 +2°C° 0 mm 2 mps 767 mmHg 86%

    14 December, Friday

    Time Temperature Precipitation Wind Pressure Humidity
    00:00 +1°C° 0 mm 2 mps 767 mmHg 87%
    01:00 +1°C° 0 mm 2 mps 767 mmHg 86%
    02:00 +1°C° 0 mm 2 mps 767 mmHg 85%
    03:00 +2°C° 0 mm 1 mps 767 mmHg 84%
    04:00 +1°C° 0 mm 2 mps 767 mmHg 83%
    05:00 +1°C° 0 mm 2 mps 767 mmHg 83%
    06:00 +1°C° 0 mm 2 mps 767 mmHg 82%
    07:00 +1°C° 0 mm 2 mps 768 mmHg 81%
    08:00 +1°C° 0 mm 2 mps 768 mmHg 81%
    09:00 +1°C° 0 mm 2 mps 768 mmHg 80%
    10:00 +2°C° 0 mm 2 mps 768 mmHg 78%
    11:00 +3°C° 0 mm 2 mps 768 mmHg 76%
    12:00 +4°C° 0 mm 2 mps 768 mmHg 73%
    13:00 +6°C° 0 mm 1 mps 768 mmHg 74%
    14:00 +6°C° 0 mm 1 mps 768 mmHg 75%
    15:00 +5°C° 0 mm 0 mps 767 mmHg 76%
    16:00 +4°C° 0 mm 0 mps 768 mmHg 79%
    17:00 +3°C° 0 mm 0 mps 768 mmHg 83%
    18:00 +3°C° 0 mm 0 mps 768 mmHg 86%
    19:00 +2°C° 0 mm 0 mps 768 mmHg 87%
    20:00 +2°C° 0 mm 0 mps 769 mmHg 88%
    21:00 +2°C° 0 mm 0 mps 769 mmHg 88%
    22:00 +2°C° 0 mm 0 mps 769 mmHg 88%
    23:00 +3°C° 0 mm 1 mps 769 mmHg 89%

    15 December, Saturday

    Time Temperature Precipitation Wind Pressure Humidity
    00:00 +3°C° 0 mm 1 mps 769 mmHg 89%
    01:00 +2°C° 0 mm 1 mps 769 mmHg 89%
    02:00 +2°C° 0 mm 1 mps 770 mmHg 90%
    03:00 +2°C° 0 mm 1 mps 770 mmHg 90%
    04:00 +2°C° 0 mm 1 mps 770 mmHg 90%
    05:00 +2°C° 0 mm 1 mps 770 mmHg 90%
    06:00 +2°C° 0 mm 1 mps 770 mmHg 91%
    07:00 +2°C° 0 mm 1 mps 771 mmHg 90%
    08:00 +2°C° 0 mm 1 mps 771 mmHg 90%
    09:00 +2°C° 0 mm 1 mps 771 mmHg 89%
    10:00 +3°C° 0 mm 1 mps 772 mmHg 84%
    11:00 +3°C° 0 mm 2 mps 772 mmHg 79%
    12:00 +4°C° 0 mm 2 mps 772 mmHg 74%
    13:00 +4°C° 0 mm 2 mps 772 mmHg 74%
    14:00 +4°C° 0 mm 2 mps 772 mmHg 73%
    15:00 +4°C° 0 mm 2 mps 772 mmHg 72%
    16:00 +3°C° 0 mm 2 mps 773 mmHg 76%
    17:00 +2°C° 0 mm 2 mps 773 mmHg 80%
    18:00 +1°C° 0 mm 2 mps 773 mmHg 84%
    19:00 -1°C° 0 mm 2 mps 774 mmHg 85%
    20:00 -1°C° 0 mm 2 mps 774 mmHg 85%
    21:00 -1°C° 0 mm 2 mps 774 mmHg 86%
    22:00 -1°C° 0 mm 3 mps 775 mmHg 85%
    23:00 -2°C° 0 mm 3 mps 775 mmHg 84%

    16 December, Sunday

    Time Temperature Precipitation Wind Pressure Humidity
    00:00 -2°C° 0 mm 3 mps 775 mmHg 84%
    01:00 -2°C° 0 mm 3 mps 775 mmHg 83%
    02:00 -2°C° 0 mm 3 mps 775 mmHg 82%
    03:00 -3°C° 0 mm 4 mps 775 mmHg 80%
    04:00 -3°C° 0 mm 4 mps 775 mmHg 81%
    05:00 -3°C° 0 mm 4 mps 775 mmHg 81%
    06:00 -4°C° 0 mm 4 mps 775 mmHg 81%
    07:00 -4°C° 0 mm 5 mps 775 mmHg 80%
    08:00 -4°C° 0 mm 5 mps 776 mmHg 80%
    09:00 -4°C° 0 mm 6 mps 776 mmHg 79%
    10:00 -4°C° 0 mm 6 mps 776 mmHg 77%
    11:00 -3°C° 0 mm 6 mps 776 mmHg 74%
    12:00 -2°C° 0 mm 6 mps 776 mmHg 71%
    13:00 -2°C° 0 mm 6 mps 775 mmHg 71%
    14:00 -2°C° 0 mm 6 mps 775 mmHg 70%
    15:00 -2°C° 0 mm 6 mps 775 mmHg 70%
    16:00 -2°C° 0 mm 6 mps 775 mmHg 73%
    17:00 -3°C° 0 mm 6 mps 775 mmHg 76%
    18:00 -4°C° 0 mm 6 mps 775 mmHg 79%
    19:00 -4°C° 0 mm 6 mps 775 mmHg 79%
    20:00 -4°C° 0 mm 6 mps 775 mmHg 78%
    21:00 -4°C° 0 mm 6 mps 775 mmHg 78%
    22:00 -4°C° 0 mm 6 mps 775 mmHg 79%
    23:00 -4°C° 0 mm 6 mps 775 mmHg 79%
    Show more